Location: Dittelbrunn
(50.0738°N, 10.2196°E)
Time: 13:50:00
(UTC+00:00)

NOSS 2-2 (E) - Pass Details

Date: 18 September 2020
Orbit: 468 x 1739 km, 63.3° (Epoch: 22 October)

Event Time Altitude Azimuth Distance (km) Brightness Sun altitude
Rises 19:12:34 0° 227° (SW) 2,496 7.0 -17.5°
Reaches altitude 10° 19:14:34 10° 229° (SW) 1,640 6.0 -17.8°
Maximum altitude 19:18:05 74° 314° (NW) 536 3.3 -18.3°
Drops below altitude 10° 19:22:15 10° 41° (NE) 1,928 5.9 -18.9°
Sets 19:24:47 0° 43° (NE) 2,991 6.9 -19.2°
